Regional Weather Roundup
Issued by NWS Charleston, WV

Home | Current Version | Previous Version | Graphics & Text | Print | Product List | Glossary On
Versions: 1 2 3 4 5 6 7 8 9 10 11 12 13 14 15 16 17 18 19 20 21 22 23 24 25 26 27 28 29 30 31 32 33 34 35 36 37 38 39 40 41 42 43 44 45 46 47 48 49 50
000
ASUS41 KRLX 271610
RWRRLX
West Virginia Regional Weather Roundup
National Weather Service Charleston WV
1100 AM EST TUE JAN 27 2015

Note: "fair" indicates few or no clouds below 12,000 feet with no
significant weather and/or obstructions to visibility.

WVZ003-271700-
Northern Panhandle of West Virginia

CITY           SKY/WX    TMP DP  RH WIND       PRES   REMARKS
WHEELING       LGT SNOW  20  15  81 NW9       29.95R WCI   9
$$

WVZ009-271700-
Northwest West Virginia

CITY           SKY/WX    TMP DP  RH WIND       PRES   REMARKS
PARKERSBURG    CLOUDY    23  14  68 NW7       30.03R
$$

WVZ006-271700-
Western West Virginia

CITY           SKY/WX    TMP DP  RH WIND       PRES   REMARKS
HUNTINGTON     PTSUNNY   21  14  74 NE5       30.04R
$$

WVZ015-271700-
West Central West Virginia

CITY           SKY/WX    TMP DP  RH WIND       PRES   REMARKS
CHARLESTON     LGT SNOW  20  12  71 VRB3      30.01R
$$

WVZ022-031-271700-
North Central West Virginia

CITY           SKY/WX    TMP DP  RH WIND       PRES   REMARKS
CLARKSBURG     CLOUDY    21  15  78 W7        29.94S
MORGANTOWN     CLOUDY    22  13  68 NW3       29.94R
$$

WVZ025-035-042-045-271700-
Southern West Virginia

CITY           SKY/WX    TMP DP  RH WIND       PRES   REMARKS
BECKLEY        SUNNY     23   7  50 NW12      29.85R
LOGAN            N/A     23  16  74 N5        29.94R
BLUEFIELD      SUNNY     25  10  53 NW9       29.83R
LEWISBURG      SUNNY     26  11  52 W8        29.82S
$$

WVZ047-271700-
Northern Mountains of West Virginia

CITY           SKY/WX    TMP DP  RH WIND       PRES   REMARKS
ELKINS         LGT SNOW  19  14  81 NW7       29.88R WCI  10
$$

WVZ052-271700-
Eastern Panhandle of West Virginia

CITY           SKY/WX    TMP DP  RH WIND       PRES   REMARKS
MARTINSBURG    CLOUDY    29  19  66 NW14G22   29.85S
PETERSBURG     CLOUDY    27  13  55 N6        29.89S
$$



USA.gov is the U.S. government's official web portal to all federal, state and local government web resources and services.